Year,Month,Day,Hour,Minute,Value (Times are PST for windspeed in km/hr)
2016,10,16,00,00,0.00
2016,10,16,00,01,2.50
2016,10,16,00,02,2.40
2016,10,16,00,03,0.00
2016,10,16,00,04,0.10
2016,10,16,00,05,3.10
2016,10,16,00,06,0.00
2016,10,16,00,07,1.20
2016,10,16,00,08,0.40
2016,10,16,00,09,0.00
2016,10,16,00,10,0.00
2016,10,16,00,11,0.00
2016,10,16,00,12,0.00
2016,10,16,00,13,0.00
2016,10,16,00,14,0.00
2016,10,16,00,15,0.10
2016,10,16,00,16,0.00
2016,10,16,00,17,0.00
2016,10,16,00,18,0.10
2016,10,16,00,19,0.00
2016,10,16,00,20,0.00
2016,10,16,00,21,1.30
2016,10,16,00,22,2.10
2016,10,16,00,23,0.00
2016,10,16,00,24,0.00
2016,10,16,00,25,0.00
2016,10,16,00,26,0.00
2016,10,16,00,27,0.20
2016,10,16,00,28,7.90
2016,10,16,00,29,5.30
2016,10,16,00,30,2.30
2016,10,16,00,31,0.00
2016,10,16,00,32,0.00
2016,10,16,00,33,0.00
2016,10,16,00,34,0.00
2016,10,16,00,35,0.00
2016,10,16,00,36,0.00
2016,10,16,00,37,0.00
2016,10,16,00,38,0.00
2016,10,16,00,39,0.30
2016,10,16,00,40,0.00
2016,10,16,00,41,1.30
2016,10,16,00,42,0.00
2016,10,16,00,43,0.00
2016,10,16,00,44,0.00
2016,10,16,00,45,0.00
2016,10,16,00,46,0.00
2016,10,16,00,47,0.00
2016,10,16,00,48,0.00
2016,10,16,00,49,0.20
2016,10,16,00,50,0.00
2016,10,16,00,51,0.00
2016,10,16,00,52,0.00
2016,10,16,00,53,4.20
2016,10,16,00,54,4.80
2016,10,16,00,55,1.50
2016,10,16,00,56,3.90
2016,10,16,00,57,1.80
2016,10,16,00,58,0.10
2016,10,16,00,59,0.00
2016,10,16,01,00,0.40
2016,10,16,01,01,1.70
2016,10,16,01,02,0.00
2016,10,16,01,03,0.00
2016,10,16,01,04,1.00
2016,10,16,01,05,2.40
2016,10,16,01,06,0.00
2016,10,16,01,07,0.00
2016,10,16,01,08,0.00
2016,10,16,01,09,0.00
2016,10,16,01,10,0.10
2016,10,16,01,11,0.00
2016,10,16,01,12,0.00
2016,10,16,01,13,0.00
2016,10,16,01,14,0.00
2016,10,16,01,15,0.00
2016,10,16,01,16,0.00
2016,10,16,01,17,0.00
2016,10,16,01,18,0.00
2016,10,16,01,19,0.00
2016,10,16,01,20,0.00
2016,10,16,01,21,0.10
2016,10,16,01,22,1.60
2016,10,16,01,23,0.30
2016,10,16,01,24,5.30
2016,10,16,01,25,1.30
2016,10,16,01,26,0.00
2016,10,16,01,27,0.00
2016,10,16,01,28,0.00
2016,10,16,01,29,0.10
2016,10,16,01,30,1.60
2016,10,16,01,31,0.00
2016,10,16,01,32,0.10
2016,10,16,01,33,2.40
2016,10,16,01,34,2.90
2016,10,16,01,35,0.00
2016,10,16,01,36,0.00
2016,10,16,01,37,1.20
2016,10,16,01,38,2.00
2016,10,16,01,39,1.30
2016,10,16,01,40,2.00
2016,10,16,01,41,0.10
2016,10,16,01,42,1.50
2016,10,16,01,43,0.90
2016,10,16,01,44,0.30
2016,10,16,01,45,0.00
2016,10,16,01,46,2.10
2016,10,16,01,47,1.10
2016,10,16,01,48,3.80
2016,10,16,01,49,1.90
2016,10,16,01,50,0.00
2016,10,16,01,51,2.40
2016,10,16,01,52,0.20
2016,10,16,01,53,0.40
2016,10,16,01,54,0.00
2016,10,16,01,55,0.00
2016,10,16,01,56,2.70
2016,10,16,01,57,1.30
2016,10,16,01,58,0.00
2016,10,16,01,59,0.00
2016,10,16,02,00,3.10
2016,10,16,02,01,0.30
2016,10,16,02,02,0.00
2016,10,16,02,03,0.00
2016,10,16,02,04,0.00
2016,10,16,02,05,0.00
2016,10,16,02,06,0.00
2016,10,16,02,07,0.00
2016,10,16,02,08,0.00
2016,10,16,02,09,0.00
2016,10,16,02,10,0.00
2016,10,16,02,11,0.10
2016,10,16,02,12,0.00
2016,10,16,02,13,0.10
2016,10,16,02,14,0.00
2016,10,16,02,15,0.60
2016,10,16,02,16,2.90
2016,10,16,02,17,3.80
2016,10,16,02,18,0.00
2016,10,16,02,19,1.70
2016,10,16,02,20,0.40
2016,10,16,02,21,0.10
2016,10,16,02,22,2.60
2016,10,16,02,23,0.10
2016,10,16,02,24,0.00
2016,10,16,02,25,3.70
2016,10,16,02,26,2.30
2016,10,16,02,27,1.20
2016,10,16,02,28,4.20
2016,10,16,02,29,3.70
2016,10,16,02,30,0.80
2016,10,16,02,31,0.10
2016,10,16,02,32,5.90
2016,10,16,02,33,0.80
2016,10,16,02,34,0.10
2016,10,16,02,35,0.00
2016,10,16,02,36,0.10
2016,10,16,02,37,1.50
2016,10,16,02,38,1.10
2016,10,16,02,39,4.20
2016,10,16,02,40,1.40
2016,10,16,02,41,2.60
2016,10,16,02,42,0.80
2016,10,16,02,43,0.80
2016,10,16,02,44,3.40
2016,10,16,02,45,2.50
2016,10,16,02,46,0.10
2016,10,16,02,47,4.20
2016,10,16,02,48,5.20
2016,10,16,02,49,5.80
2016,10,16,02,50,2.80
2016,10,16,02,51,2.30
2016,10,16,02,52,5.00
2016,10,16,02,53,3.50
2016,10,16,02,54,0.90
2016,10,16,02,55,2.30
2016,10,16,02,56,4.10
2016,10,16,02,57,5.20
2016,10,16,02,58,4.40
2016,10,16,02,59,1.80
2016,10,16,03,00,4.00
2016,10,16,03,01,2.70
2016,10,16,03,02,2.90
2016,10,16,03,03,1.20
2016,10,16,03,04,0.00
2016,10,16,03,05,2.00
2016,10,16,03,06,1.20
2016,10,16,03,07,2.30
2016,10,16,03,08,0.10
2016,10,16,03,09,0.00
2016,10,16,03,10,1.50
2016,10,16,03,11,0.00
2016,10,16,03,12,0.00
2016,10,16,03,13,0.00
2016,10,16,03,14,0.00
2016,10,16,03,15,0.00
2016,10,16,03,16,0.00
2016,10,16,03,17,0.00
2016,10,16,03,18,0.00
2016,10,16,03,19,0.00
2016,10,16,03,20,0.00
2016,10,16,03,21,0.10
2016,10,16,03,22,0.00
2016,10,16,03,23,0.00
2016,10,16,03,24,0.00
2016,10,16,03,25,0.00
2016,10,16,03,26,0.00
2016,10,16,03,27,0.00
2016,10,16,03,28,0.00
2016,10,16,03,29,0.00
2016,10,16,03,30,0.00
2016,10,16,03,31,0.00
2016,10,16,03,32,0.00
2016,10,16,03,33,0.00
2016,10,16,03,34,0.00
2016,10,16,03,35,2.70
2016,10,16,03,36,0.60
2016,10,16,03,37,0.00
2016,10,16,03,38,0.10
2016,10,16,03,39,1.10
2016,10,16,03,40,0.10
2016,10,16,03,41,1.80
2016,10,16,03,42,0.00
2016,10,16,03,43,1.20
2016,10,16,03,44,3.20
2016,10,16,03,45,0.70
2016,10,16,03,46,0.40
2016,10,16,03,47,2.80
2016,10,16,03,48,0.10
2016,10,16,03,49,0.00
2016,10,16,03,50,0.00
2016,10,16,03,51,0.00
2016,10,16,03,52,3.10
2016,10,16,03,53,3.80
2016,10,16,03,54,0.10
2016,10,16,03,55,1.90
2016,10,16,03,56,0.20
2016,10,16,03,57,0.10
2016,10,16,03,58,0.00
2016,10,16,03,59,0.00
2016,10,16,04,00,1.90
2016,10,16,04,01,0.10
2016,10,16,04,02,1.80
2016,10,16,04,03,0.00
2016,10,16,04,04,0.00
2016,10,16,04,05,0.10
2016,10,16,04,06,1.60
2016,10,16,04,07,1.20
2016,10,16,04,08,1.10
2016,10,16,04,09,0.10
2016,10,16,04,10,0.10
2016,10,16,04,11,1.80
2016,10,16,04,12,1.30
2016,10,16,04,13,4.80
2016,10,16,04,14,1.10
2016,10,16,04,15,0.00
2016,10,16,04,16,0.00
2016,10,16,04,17,1.10
2016,10,16,04,18,0.40
2016,10,16,04,19,0.00
2016,10,16,04,20,0.00
2016,10,16,04,21,1.00
2016,10,16,04,22,0.10
2016,10,16,04,23,3.10
2016,10,16,04,24,0.20
2016,10,16,04,25,0.00
2016,10,16,04,26,0.00
2016,10,16,04,27,0.00
2016,10,16,04,28,3.20
2016,10,16,04,29,1.40
2016,10,16,04,30,0.10
2016,10,16,04,31,5.50
2016,10,16,04,32,1.80
2016,10,16,04,33,1.50
2016,10,16,04,34,1.10
2016,10,16,04,35,1.70
2016,10,16,04,36,0.30
2016,10,16,04,37,0.70
2016,10,16,04,38,2.40
2016,10,16,04,39,2.40
2016,10,16,04,40,0.90
2016,10,16,04,41,0.90
2016,10,16,04,42,7.10
2016,10,16,04,43,5.80
2016,10,16,04,44,0.20
2016,10,16,04,45,1.70
2016,10,16,04,46,6.10
2016,10,16,04,47,0.30
2016,10,16,04,48,0.10
2016,10,16,04,49,3.70
2016,10,16,04,50,5.90
2016,10,16,04,51,1.10
2016,10,16,04,52,0.00
2016,10,16,04,53,0.90
2016,10,16,04,54,0.00
2016,10,16,04,55,0.00
2016,10,16,04,56,0.10
2016,10,16,04,57,1.00
2016,10,16,04,58,2.50
2016,10,16,04,59,0.00
2016,10,16,05,00,0.00
2016,10,16,05,01,0.00
2016,10,16,05,02,0.00
2016,10,16,05,03,0.00
2016,10,16,05,04,0.00
2016,10,16,05,05,0.00
2016,10,16,05,06,0.00
2016,10,16,05,07,0.00
2016,10,16,05,08,0.00
2016,10,16,05,09,0.00
2016,10,16,05,10,0.00
2016,10,16,05,11,0.00
2016,10,16,05,12,1.30
2016,10,16,05,13,0.00
2016,10,16,05,14,3.20
2016,10,16,05,15,0.20
2016,10,16,05,16,3.30
2016,10,16,05,17,0.40
2016,10,16,05,18,5.50
2016,10,16,05,19,0.10
2016,10,16,05,20,4.40
2016,10,16,05,21,4.10
2016,10,16,05,22,3.00
2016,10,16,05,23,4.10
2016,10,16,05,24,2.40
2016,10,16,05,25,2.50
2016,10,16,05,26,0.10
2016,10,16,05,27,0.00
2016,10,16,05,28,0.10
2016,10,16,05,29,0.00
2016,10,16,05,30,1.30
2016,10,16,05,31,3.00
2016,10,16,05,32,0.00
2016,10,16,05,33,0.20
2016,10,16,05,34,1.80
2016,10,16,05,35,1.30
2016,10,16,05,36,0.50
2016,10,16,05,37,6.10
2016,10,16,05,38,5.20
2016,10,16,05,39,2.10
2016,10,16,05,40,0.00
2016,10,16,05,41,0.00
2016,10,16,05,42,0.80
2016,10,16,05,43,0.20
2016,10,16,05,44,0.10
2016,10,16,05,45,2.20
2016,10,16,05,46,1.30
2016,10,16,05,47,0.60
2016,10,16,05,48,3.20
2016,10,16,05,49,0.00
2016,10,16,05,50,4.80
2016,10,16,05,51,1.90
2016,10,16,05,52,1.50
2016,10,16,05,53,3.90
2016,10,16,05,54,0.90
2016,10,16,05,55,0.10
2016,10,16,05,56,0.80
2016,10,16,05,57,0.50
2016,10,16,05,58,1.10
2016,10,16,05,59,0.00
2016,10,16,06,00,0.00
2016,10,16,06,01,0.10
2016,10,16,06,02,0.00
2016,10,16,06,03,0.60
2016,10,16,06,04,0.60
2016,10,16,06,05,0.00
2016,10,16,06,06,0.00
2016,10,16,06,07,1.90
2016,10,16,06,08,1.10
2016,10,16,06,09,2.10
2016,10,16,06,10,0.50
2016,10,16,06,11,1.00
2016,10,16,06,12,0.10
2016,10,16,06,13,3.10
2016,10,16,06,14,1.90
2016,10,16,06,15,6.70
2016,10,16,06,16,1.80
2016,10,16,06,17,4.60
2016,10,16,06,18,1.50
2016,10,16,06,19,0.00
2016,10,16,06,20,1.30
2016,10,16,06,21,4.60
2016,10,16,06,22,4.60
2016,10,16,06,23,0.80
2016,10,16,06,24,2.00
2016,10,16,06,25,3.20
2016,10,16,06,26,1.00
2016,10,16,06,27,5.00
2016,10,16,06,28,7.20
2016,10,16,06,29,7.90
2016,10,16,06,30,8.20
2016,10,16,06,31,5.70
2016,10,16,06,32,4.20
2016,10,16,06,33,4.80
2016,10,16,06,34,9.40
2016,10,16,06,35,10.20
2016,10,16,06,36,7.20
2016,10,16,06,37,1.70
2016,10,16,06,38,6.20
2016,10,16,06,39,4.60
2016,10,16,06,40,5.10
2016,10,16,06,41,1.20
2016,10,16,06,42,1.00
2016,10,16,06,43,2.10
2016,10,16,06,44,5.50
2016,10,16,06,45,4.10
2016,10,16,06,46,4.60
2016,10,16,06,47,0.30
2016,10,16,06,48,1.50
2016,10,16,06,49,0.10
2016,10,16,06,50,2.70
2016,10,16,06,51,4.50
2016,10,16,06,52,1.20
2016,10,16,06,53,0.30
2016,10,16,06,54,0.80
2016,10,16,06,55,0.00
2016,10,16,06,56,0.00
2016,10,16,06,57,0.00
2016,10,16,06,58,0.10
2016,10,16,06,59,0.00
2016,10,16,07,00,0.00
2016,10,16,07,01,0.00
2016,10,16,07,02,0.10
2016,10,16,07,03,1.90
2016,10,16,07,04,4.80
2016,10,16,07,05,6.60
2016,10,16,07,06,4.50
2016,10,16,07,07,7.30
2016,10,16,07,08,8.40
2016,10,16,07,09,6.20
2016,10,16,07,10,4.00
2016,10,16,07,11,4.30
2016,10,16,07,12,3.50
2016,10,16,07,13,2.10
2016,10,16,07,14,2.80
2016,10,16,07,15,4.60
2016,10,16,07,16,6.60
2016,10,16,07,17,2.80
2016,10,16,07,18,3.20
2016,10,16,07,19,0.90
2016,10,16,07,20,0.80
2016,10,16,07,21,2.20
2016,10,16,07,22,6.70
2016,10,16,07,23,3.70
2016,10,16,07,24,0.60
2016,10,16,07,25,5.70
2016,10,16,07,26,6.10
2016,10,16,07,27,4.80
2016,10,16,07,28,5.40
2016,10,16,07,29,8.80
2016,10,16,07,30,10.30
2016,10,16,07,31,11.40
2016,10,16,07,32,6.80
2016,10,16,07,33,10.50
2016,10,16,07,34,5.00
2016,10,16,07,35,9.00
2016,10,16,07,36,9.50
2016,10,16,07,37,9.00
2016,10,16,07,38,9.30
2016,10,16,07,39,6.10
2016,10,16,07,40,7.70
2016,10,16,07,41,4.40
2016,10,16,07,42,1.80
2016,10,16,07,43,5.10
2016,10,16,07,44,6.90
2016,10,16,07,45,6.70
2016,10,16,07,46,9.80
2016,10,16,07,47,8.70
2016,10,16,07,48,4.90
2016,10,16,07,49,7.70
2016,10,16,07,50,6.70
2016,10,16,07,51,0.40
2016,10,16,07,52,2.10
2016,10,16,07,53,8.10
2016,10,16,07,54,6.50
2016,10,16,07,55,3.70
2016,10,16,07,56,0.10
2016,10,16,07,57,4.50
2016,10,16,07,58,2.40
2016,10,16,07,59,1.10
2016,10,16,08,00,3.70
2016,10,16,08,01,4.20
2016,10,16,08,02,3.10
2016,10,16,08,03,0.50
2016,10,16,08,04,3.00
2016,10,16,08,05,3.00
2016,10,16,08,06,0.10
2016,10,16,08,07,0.60
2016,10,16,08,08,0.00
2016,10,16,08,09,2.00
2016,10,16,08,10,0.10
2016,10,16,08,11,0.40
2016,10,16,08,12,4.00
2016,10,16,08,13,4.80
2016,10,16,08,14,3.80
2016,10,16,08,15,5.50
2016,10,16,08,16,2.50
2016,10,16,08,17,0.00
2016,10,16,08,18,1.90
2016,10,16,08,19,0.00
2016,10,16,08,20,0.00
2016,10,16,08,21,0.00
2016,10,16,08,22,2.10
2016,10,16,08,23,0.10
2016,10,16,08,24,0.00
2016,10,16,08,25,0.00
2016,10,16,08,26,0.00
2016,10,16,08,27,0.00
2016,10,16,08,28,1.00
2016,10,16,08,29,0.00
2016,10,16,08,30,0.10
2016,10,16,08,31,3.10
2016,10,16,08,32,2.00
2016,10,16,08,33,0.10
2016,10,16,08,34,2.50
2016,10,16,08,35,1.00
2016,10,16,08,36,0.10
2016,10,16,08,37,1.70
2016,10,16,08,38,0.10
2016,10,16,08,39,0.00
2016,10,16,08,40,2.70
2016,10,16,08,41,0.00
2016,10,16,08,42,0.00
2016,10,16,08,43,0.00
2016,10,16,08,44,0.20
2016,10,16,08,45,0.00
2016,10,16,08,46,0.00
2016,10,16,08,47,0.10
2016,10,16,08,48,0.00
2016,10,16,08,49,0.00
2016,10,16,08,50,0.00
2016,10,16,08,51,0.00
2016,10,16,08,52,4.00
2016,10,16,08,53,0.00
2016,10,16,08,54,0.00
2016,10,16,08,55,0.00
2016,10,16,08,56,0.10
2016,10,16,08,57,0.00
2016,10,16,08,58,5.10
2016,10,16,08,59,2.50
2016,10,16,09,00,1.30
2016,10,16,09,01,1.00
2016,10,16,09,02,0.10
2016,10,16,09,03,1.00
2016,10,16,09,04,0.00
2016,10,16,09,05,3.10
2016,10,16,09,06,0.20
2016,10,16,09,07,0.00
2016,10,16,09,08,0.00
2016,10,16,09,09,0.00
2016,10,16,09,10,0.00
2016,10,16,09,11,0.00
2016,10,16,09,12,0.00
2016,10,16,09,13,0.00
2016,10,16,09,14,0.00
2016,10,16,09,15,1.90
2016,10,16,09,16,3.80
2016,10,16,09,17,0.70
2016,10,16,09,18,0.30
2016,10,16,09,19,1.30
2016,10,16,09,20,0.50
2016,10,16,09,21,0.00
2016,10,16,09,22,0.10
2016,10,16,09,23,0.70
2016,10,16,09,24,0.10
2016,10,16,09,25,4.00
2016,10,16,09,26,1.60
2016,10,16,09,27,0.10
2016,10,16,09,28,0.10
2016,10,16,09,29,2.50
2016,10,16,09,30,4.60
2016,10,16,09,31,4.80
2016,10,16,09,32,1.30
2016,10,16,09,33,0.00
2016,10,16,09,34,0.60
2016,10,16,09,35,0.90
2016,10,16,09,36,3.60
2016,10,16,09,37,5.40
2016,10,16,09,38,2.90
2016,10,16,09,39,4.80
2016,10,16,09,40,2.00
2016,10,16,09,41,1.10
2016,10,16,09,42,0.00
2016,10,16,09,43,0.00
2016,10,16,09,44,0.00
2016,10,16,09,45,2.40
2016,10,16,09,46,0.00
2016,10,16,09,47,0.00
2016,10,16,09,48,0.00
2016,10,16,09,49,4.40
2016,10,16,09,50,1.90
2016,10,16,09,51,2.50
2016,10,16,09,52,2.90
2016,10,16,09,53,5.50
2016,10,16,09,54,3.30
2016,10,16,09,55,3.20
2016,10,16,09,56,1.00
2016,10,16,09,57,0.80
2016,10,16,09,58,4.20
2016,10,16,09,59,0.00
2016,10,16,10,00,0.90
2016,10,16,10,01,0.00
2016,10,16,10,02,0.00
2016,10,16,10,03,1.20
2016,10,16,10,04,1.50
2016,10,16,10,05,0.00
2016,10,16,10,06,0.00
2016,10,16,10,07,0.00
2016,10,16,10,08,0.10
2016,10,16,10,09,0.00
2016,10,16,10,10,0.90
2016,10,16,10,11,3.40
2016,10,16,10,12,2.80
2016,10,16,10,13,0.00
2016,10,16,10,14,0.10
2016,10,16,10,15,0.00
2016,10,16,10,16,0.80
2016,10,16,10,17,0.00
2016,10,16,10,18,0.10
2016,10,16,10,19,0.00
2016,10,16,10,20,0.60
2016,10,16,10,21,3.30
2016,10,16,10,22,0.00
2016,10,16,10,23,0.10
2016,10,16,10,24,0.50
2016,10,16,10,25,0.00
2016,10,16,10,26,0.00
2016,10,16,10,27,0.10
2016,10,16,10,28,0.00
2016,10,16,10,29,0.00
2016,10,16,10,30,0.00
2016,10,16,10,31,0.00
2016,10,16,10,32,0.00
2016,10,16,10,33,2.00
2016,10,16,10,34,0.70
2016,10,16,10,35,0.00
2016,10,16,10,36,0.90
2016,10,16,10,37,3.90
2016,10,16,10,38,0.10
2016,10,16,10,39,0.00
2016,10,16,10,40,2.50
2016,10,16,10,41,6.50
2016,10,16,10,42,5.20
2016,10,16,10,43,1.00
2016,10,16,10,44,2.40
2016,10,16,10,45,0.00
2016,10,16,10,46,0.00
2016,10,16,10,47,2.90
2016,10,16,10,48,0.10
2016,10,16,10,49,0.10
2016,10,16,10,50,5.30
2016,10,16,10,51,3.70
2016,10,16,10,52,0.10
2016,10,16,10,53,0.00
2016,10,16,10,54,0.00
2016,10,16,10,55,0.00
2016,10,16,10,56,0.00
2016,10,16,10,57,0.00
2016,10,16,10,58,0.00
2016,10,16,10,59,0.00
2016,10,16,11,00,0.10
2016,10,16,11,01,1.70
2016,10,16,11,02,1.10
2016,10,16,11,03,0.00
2016,10,16,11,04,0.10
2016,10,16,11,05,0.00
2016,10,16,11,06,0.00
2016,10,16,11,07,2.60
2016,10,16,11,08,1.70
2016,10,16,11,09,1.20
2016,10,16,11,10,2.10
2016,10,16,11,11,1.30
2016,10,16,11,12,3.70
2016,10,16,11,13,2.80
2016,10,16,11,14,4.60
2016,10,16,11,15,3.00
2016,10,16,11,16,8.60
2016,10,16,11,17,9.30
2016,10,16,11,18,6.90
2016,10,16,11,19,6.70
2016,10,16,11,20,8.20
2016,10,16,11,21,8.50
2016,10,16,11,22,4.00
2016,10,16,11,23,9.70
2016,10,16,11,24,12.50
2016,10,16,11,25,10.40
2016,10,16,11,26,11.50
2016,10,16,11,27,6.90
2016,10,16,11,28,2.40
2016,10,16,11,29,3.40
2016,10,16,11,30,8.70
2016,10,16,11,31,4.50
2016,10,16,11,32,4.50
2016,10,16,11,33,6.60
2016,10,16,11,34,2.10
2016,10,16,11,35,4.60
2016,10,16,11,36,5.70
2016,10,16,11,37,3.40
2016,10,16,11,38,5.50
2016,10,16,11,39,5.80
2016,10,16,11,40,4.80
2016,10,16,11,41,1.30
2016,10,16,11,42,3.90
2016,10,16,11,43,4.20
2016,10,16,11,44,3.60
2016,10,16,11,45,2.50
2016,10,16,11,46,1.50
2016,10,16,11,47,3.90
2016,10,16,11,48,5.50
2016,10,16,11,49,8.10
2016,10,16,11,50,6.90
2016,10,16,11,51,2.50
2016,10,16,11,52,6.20
2016,10,16,11,53,2.70
2016,10,16,11,54,2.80
2016,10,16,11,55,1.70
2016,10,16,11,56,5.00
2016,10,16,11,57,0.10
2016,10,16,11,58,1.80
2016,10,16,11,59,7.10
2016,10,16,12,00,7.90
2016,10,16,12,01,8.50
2016,10,16,12,02,12.50
2016,10,16,12,03,12.50
2016,10,16,12,04,14.60
2016,10,16,12,05,13.90
2016,10,16,12,06,7.80
2016,10,16,12,07,9.00
2016,10,16,12,08,8.10
2016,10,16,12,09,5.50
2016,10,16,12,10,7.80
2016,10,16,12,11,6.20
2016,10,16,12,12,6.20
2016,10,16,12,13,4.90
2016,10,16,12,14,4.10
2016,10,16,12,15,1.60
2016,10,16,12,16,0.30
2016,10,16,12,17,1.70
2016,10,16,12,18,0.10
2016,10,16,12,19,6.00
2016,10,16,12,20,5.80
2016,10,16,12,21,4.70
2016,10,16,12,22,5.60
2016,10,16,12,23,8.90
2016,10,16,12,24,10.40
2016,10,16,12,25,6.90
2016,10,16,12,26,4.90
2016,10,16,12,27,2.40
2016,10,16,12,28,9.70
2016,10,16,12,29,8.00
2016,10,16,12,30,9.00
2016,10,16,12,31,6.90
2016,10,16,12,32,5.60
2016,10,16,12,33,2.30
2016,10,16,12,34,6.70
2016,10,16,12,35,4.40
2016,10,16,12,36,0.40
2016,10,16,12,37,1.50
2016,10,16,12,38,0.10
2016,10,16,12,39,0.00
2016,10,16,12,40,0.00
2016,10,16,12,41,2.00
2016,10,16,12,42,1.10
2016,10,16,12,43,0.10
2016,10,16,12,44,3.30
2016,10,16,12,45,3.10
2016,10,16,12,46,3.20
2016,10,16,12,47,0.10
2016,10,16,12,48,0.60
2016,10,16,12,49,0.80
2016,10,16,12,50,1.70
2016,10,16,12,51,1.80
2016,10,16,12,52,0.00
2016,10,16,12,53,0.00
2016,10,16,12,54,0.00
2016,10,16,12,55,0.00
2016,10,16,12,56,0.10
2016,10,16,12,57,0.00
2016,10,16,12,58,0.00
2016,10,16,12,59,0.00
2016,10,16,13,00,0.00
2016,10,16,13,01,0.00
2016,10,16,13,02,0.00
2016,10,16,13,03,0.00
2016,10,16,13,04,0.00
2016,10,16,13,05,0.00
2016,10,16,13,06,0.00
2016,10,16,13,07,0.00
2016,10,16,13,08,0.00
2016,10,16,13,09,0.00
2016,10,16,13,10,0.00
2016,10,16,13,11,0.00
2016,10,16,13,12,0.00
2016,10,16,13,13,0.00
2016,10,16,13,14,0.10
2016,10,16,13,15,0.00
2016,10,16,13,16,0.00
2016,10,16,13,17,0.00
2016,10,16,13,18,0.00
2016,10,16,13,19,0.00
2016,10,16,13,20,0.10
2016,10,16,13,21,0.00
2016,10,16,13,22,0.00
2016,10,16,13,23,0.00
2016,10,16,13,24,0.00
2016,10,16,13,25,0.10
2016,10,16,13,26,0.00
2016,10,16,13,27,0.00
2016,10,16,13,28,0.00
2016,10,16,13,29,0.00
2016,10,16,13,30,0.30
2016,10,16,13,31,4.50
2016,10,16,13,32,2.70
2016,10,16,13,33,4.00
2016,10,16,13,34,3.40
2016,10,16,13,35,1.90
2016,10,16,13,36,0.60
2016,10,16,13,37,1.00
2016,10,16,13,38,0.60
2016,10,16,13,39,0.90
2016,10,16,13,40,1.80
2016,10,16,13,41,0.30
2016,10,16,13,42,2.70
2016,10,16,13,43,1.60
2016,10,16,13,44,1.90
2016,10,16,13,45,1.50
2016,10,16,13,46,2.30
2016,10,16,13,47,2.70
2016,10,16,13,48,0.60
2016,10,16,13,49,0.20
2016,10,16,13,50,0.20
2016,10,16,13,51,1.10
2016,10,16,13,52,0.30
2016,10,16,13,53,0.80
2016,10,16,13,54,0.10
2016,10,16,13,55,0.30
2016,10,16,13,56,0.10
2016,10,16,13,57,0.00
2016,10,16,13,58,0.00
2016,10,16,13,59,0.50
2016,10,16,14,00,0.80
2016,10,16,14,01,2.70
2016,10,16,14,02,2.40
2016,10,16,14,03,1.00
2016,10,16,14,04,1.30
2016,10,16,14,05,0.40
2016,10,16,14,06,0.50
2016,10,16,14,07,0.40
2016,10,16,14,08,0.20
2016,10,16,14,09,0.10
2016,10,16,14,10,1.90
2016,10,16,14,11,1.20
2016,10,16,14,12,0.10
2016,10,16,14,13,0.00
2016,10,16,14,14,0.10
2016,10,16,14,15,0.00
2016,10,16,14,16,0.80
2016,10,16,14,17,0.30
2016,10,16,14,18,1.30
2016,10,16,14,19,0.10
2016,10,16,14,20,2.70
2016,10,16,14,21,3.00
2016,10,16,14,22,1.70
2016,10,16,14,23,0.90
2016,10,16,14,24,0.10
2016,10,16,14,25,0.00
2016,10,16,14,26,0.00
2016,10,16,14,27,0.00
2016,10,16,14,28,0.00
2016,10,16,14,29,0.00
2016,10,16,14,30,0.00
2016,10,16,14,31,0.00
2016,10,16,14,32,0.00
2016,10,16,14,33,0.00
2016,10,16,14,34,0.00
2016,10,16,14,35,2.50
2016,10,16,14,36,0.70
2016,10,16,14,37,0.10
2016,10,16,14,38,0.00
2016,10,16,14,39,0.00
2016,10,16,14,40,0.00
2016,10,16,14,41,0.00
2016,10,16,14,42,0.00
2016,10,16,14,43,0.00
2016,10,16,14,44,0.00
2016,10,16,14,45,0.00
2016,10,16,14,46,0.00
2016,10,16,14,47,0.00
2016,10,16,14,48,0.00
2016,10,16,14,49,0.00
2016,10,16,14,50,0.00
2016,10,16,14,51,0.00
2016,10,16,14,52,0.00
2016,10,16,14,53,0.00
2016,10,16,14,54,0.00
2016,10,16,14,55,0.00
2016,10,16,14,56,0.00
2016,10,16,14,57,0.00
2016,10,16,14,58,0.00
2016,10,16,14,59,0.00
2016,10,16,15,00,0.00
2016,10,16,15,01,0.00
2016,10,16,15,02,0.10
2016,10,16,15,03,0.00
2016,10,16,15,04,0.00
2016,10,16,15,05,0.00
2016,10,16,15,06,0.00
2016,10,16,15,07,0.10
2016,10,16,15,08,0.10
2016,10,16,15,09,0.00
2016,10,16,15,10,0.10
2016,10,16,15,11,0.10
2016,10,16,15,12,0.00
2016,10,16,15,13,1.20
2016,10,16,15,14,1.50
2016,10,16,15,15,0.40
2016,10,16,15,16,0.30
2016,10,16,15,17,4.10
2016,10,16,15,18,2.40
2016,10,16,15,19,0.00
2016,10,16,15,20,1.80
2016,10,16,15,21,0.10
2016,10,16,15,22,2.80
2016,10,16,15,23,1.10
2016,10,16,15,24,1.20
2016,10,16,15,25,0.00
2016,10,16,15,26,0.00
2016,10,16,15,27,0.10
2016,10,16,15,28,0.00
2016,10,16,15,29,0.00
2016,10,16,15,30,0.10
2016,10,16,15,31,0.00
2016,10,16,15,32,0.00
2016,10,16,15,33,0.10
2016,10,16,15,34,0.00
2016,10,16,15,35,0.00
2016,10,16,15,36,0.00
2016,10,16,15,37,0.00
2016,10,16,15,38,0.00
2016,10,16,15,39,0.00
2016,10,16,15,40,0.00
2016,10,16,15,41,0.00
2016,10,16,15,42,0.00
2016,10,16,15,43,0.00
2016,10,16,15,44,0.00
2016,10,16,15,45,0.10
2016,10,16,15,46,0.00
2016,10,16,15,47,0.00
2016,10,16,15,48,0.00
2016,10,16,15,49,0.00
2016,10,16,15,50,0.00
2016,10,16,15,51,0.00
2016,10,16,15,52,0.00
2016,10,16,15,53,0.00
2016,10,16,15,54,0.00
2016,10,16,15,55,0.00
2016,10,16,15,56,0.00
2016,10,16,15,57,0.00
2016,10,16,15,58,0.00
2016,10,16,15,59,0.00
2016,10,16,16,00,0.00
2016,10,16,16,01,0.00
2016,10,16,16,02,0.00
2016,10,16,16,03,0.00
2016,10,16,16,04,0.00
2016,10,16,16,05,0.10
2016,10,16,16,06,0.00
2016,10,16,16,07,0.00
2016,10,16,16,08,2.20
2016,10,16,16,09,1.70
2016,10,16,16,10,0.00
2016,10,16,16,11,0.00
2016,10,16,16,12,0.00
2016,10,16,16,13,0.10
2016,10,16,16,14,0.00
2016,10,16,16,15,0.10
2016,10,16,16,16,0.00
2016,10,16,16,17,1.80
2016,10,16,16,18,0.40
2016,10,16,16,19,0.10
2016,10,16,16,20,0.00
2016,10,16,16,21,0.00
2016,10,16,16,22,0.00
2016,10,16,16,23,0.10
2016,10,16,16,24,0.00
2016,10,16,16,25,1.20
2016,10,16,16,26,0.00
2016,10,16,16,27,1.60
2016,10,16,16,28,0.10
2016,10,16,16,29,0.00
2016,10,16,16,30,0.10
2016,10,16,16,31,0.10
2016,10,16,16,32,0.00
2016,10,16,16,33,1.90
2016,10,16,16,34,0.00
2016,10,16,16,35,2.10
2016,10,16,16,36,5.20
2016,10,16,16,37,6.60
2016,10,16,16,38,3.80
2016,10,16,16,39,2.60
2016,10,16,16,40,5.60
2016,10,16,16,41,0.90
2016,10,16,16,42,2.60
2016,10,16,16,43,5.00
2016,10,16,16,44,6.20
2016,10,16,16,45,0.90
2016,10,16,16,46,0.90
2016,10,16,16,47,1.60
2016,10,16,16,48,0.90
2016,10,16,16,49,0.00
2016,10,16,16,50,1.40
2016,10,16,16,51,7.10
2016,10,16,16,52,6.90
2016,10,16,16,53,5.40
2016,10,16,16,54,4.40
2016,10,16,16,55,2.50
2016,10,16,16,56,2.40
2016,10,16,16,57,2.70
2016,10,16,16,58,3.60
2016,10,16,16,59,6.10
2016,10,16,17,00,1.90
2016,10,16,17,01,6.70
2016,10,16,17,02,3.60
2016,10,16,17,03,2.80
2016,10,16,17,04,7.10
2016,10,16,17,05,6.80
2016,10,16,17,06,4.90
2016,10,16,17,07,4.10
2016,10,16,17,08,2.10
2016,10,16,17,09,7.30
2016,10,16,17,10,5.20
2016,10,16,17,11,4.10
2016,10,16,17,12,4.00
2016,10,16,17,13,5.30
2016,10,16,17,14,0.10
2016,10,16,17,15,1.30
2016,10,16,17,16,4.10
2016,10,16,17,17,1.50
2016,10,16,17,18,3.30
2016,10,16,17,19,1.70
2016,10,16,17,20,0.00
2016,10,16,17,21,0.00
2016,10,16,17,22,0.00
2016,10,16,17,23,0.00
2016,10,16,17,24,0.30
2016,10,16,17,25,0.00
2016,10,16,17,26,0.10
2016,10,16,17,27,0.00
2016,10,16,17,28,0.00
2016,10,16,17,29,2.70
2016,10,16,17,30,4.20
2016,10,16,17,31,4.30
2016,10,16,17,32,5.20
2016,10,16,17,33,7.70
2016,10,16,17,34,9.00
2016,10,16,17,35,2.90
2016,10,16,17,36,3.40
2016,10,16,17,37,4.10
2016,10,16,17,38,2.40
2016,10,16,17,39,8.10
2016,10,16,17,40,9.40
2016,10,16,17,41,4.80
2016,10,16,17,42,8.30
2016,10,16,17,43,10.80
2016,10,16,17,44,9.50
2016,10,16,17,45,6.10
2016,10,16,17,46,6.60
2016,10,16,17,47,0.50
2016,10,16,17,48,4.60
2016,10,16,17,49,3.50
2016,10,16,17,50,0.00
2016,10,16,17,51,0.10
2016,10,16,17,52,0.50
2016,10,16,17,53,0.10
2016,10,16,17,54,0.00
2016,10,16,17,55,0.00
2016,10,16,17,56,0.00
2016,10,16,17,57,0.00
2016,10,16,17,58,0.00
2016,10,16,17,59,0.00
2016,10,16,18,00,0.10
2016,10,16,18,01,0.00
2016,10,16,18,02,0.00
2016,10,16,18,03,0.00
2016,10,16,18,04,0.00
2016,10,16,18,05,0.00
2016,10,16,18,06,0.00